DateTimeUTC,F1_A11,F1_S11,BsB_S11,BsG_S11,BsR_S11,BbsB_S11,BbsG_S11,BbsR_S11,BaB_A11,BaG_A11,BaR_A11,Tu_S11,T_S11,Uu_S11,U_S11,P_S11,T1_A11
2021-03-18T00:00:00Z,00040200,20000000,,,,,,,0000.07,-000.01,-000.27,17.4,24.6,08.5,05.4,0649.4,31.0
2021-03-18T00:01:00Z,00040200,20000000,,,,,,,-000.04,-000.48,-000.03,17.4,24.6,08.4,05.4,0649.4,31.0
2021-03-18T00:02:00Z,00040200,20000000,,,,,,,-000.90,-000.64,-000.61,17.4,24.6,08.4,05.4,0649.4,31.0
2021-03-18T00:03:00Z,00040200,60000000,,,,,,,-000.24,0000.19,-000.25,17.4,24.6,08.4,05.4,0649.4,30.9
2021-03-18T00:04:00Z,00040200,40000000,0000.15,0000.10,0000.08,0000.65,0000.04,-000.03,0000.19,0000.03,0000.42,17.6,24.4,07.6,05.0,0650.1,31.0
2021-03-18T00:05:00Z,00040200,00000000,-000.12,-000.25,0000.12,0000.28,-000.15,-000.19,0000.04,-000.09,-000.16,17.6,24.4,07.5,05.0,0650.4,30.9
2021-03-18T00:06:00Z,00040200,00000000,0000.23,0000.11,0000.33,0000.55,-000.28,0000.13,-000.30,-000.01,0000.12,17.6,24.4,07.5,05.0,0650.4,31.0
2021-03-18T00:07:00Z,00040200,00000000,-000.13,-000.03,0000.24,0000.42,-000.08,-000.07,0000.19,-000.16,-000.08,17.6,24.4,07.5,05.0,0650.5,31.0
2021-03-18T00:08:00Z,00040200,00000000,-000.12,0000.22,0000.30,0000.37,0000.04,-000.07,0003.25,0002.47,0002.23,17.6,24.4,07.8,05.2,0650.5,30.9
2021-03-18T00:09:00Z,00040200,00000000,0000.05,-000.03,-000.13,0000.43,0000.00,0000.03,-001.40,-000.45,-000.54,17.7,24.4,08.4,05.5,0650.5,30.9
2021-03-18T00:10:00Z,00040200,00000000,0000.22,-000.12,0000.45,0000.04,-000.09,0000.03,0001.13,0001.13,0000.75,17.7,24.4,08.2,05.4,0650.4,30.9
2021-03-18T00:11:00Z,00040200,00000000,0000.27,-000.07,-000.09,0000.32,0000.05,-000.12,-000.17,-000.29,-000.02,17.8,24.4,08.5,05.7,0650.5,30.9
2021-03-18T00:12:00Z,00040200,00000000,-000.07,-000.05,0000.33,-000.23,0000.13,0000.14,0000.55,0000.30,0000.58,17.9,24.4,08.4,05.6,0650.5,31.0
2021-03-18T00:13:00Z,00040200,00000000,-000.15,-000.06,0000.11,0000.32,0000.05,-000.11,0000.40,0000.22,-000.02,18.0,24.5,08.3,05.6,0650.6,31.0
2021-03-18T00:14:00Z,00040200,00000000,-000.55,0000.04,0000.19,-000.04,-000.00,-000.04,0000.93,0001.13,0000.69,18.0,24.5,08.4,05.7,0650.3,31.0
2021-03-18T00:15:00Z,00040200,00000000,-000.07,-000.03,0000.08,-000.11,0000.25,-000.20,-000.13,-000.15,-000.36,18.1,24.5,08.6,05.8,0650.4,31.0
2021-03-18T00:16:00Z,00040200,00000000,0000.22,0000.17,0000.33,-000.08,-000.03,0000.21,0000.31,0000.86,0000.60,18.1,24.6,08.6,05.8,0650.3,31.0
2021-03-18T00:17:00Z,00040200,00000000,0000.75,0000.04,0000.14,0000.51,-000.02,0000.11,-000.29,-000.40,-000.15,18.2,24.6,08.6,05.8,0649.8,31.0
2021-03-18T00:18:00Z,00040200,00000000,0000.33,-000.10,0000.20,-000.13,0000.02,-000.05,-000.74,-000.80,-000.27,18.2,24.6,08.4,05.7,0649.8,31.0
2021-03-18T00:19:00Z,00040200,00000000,0000.06,0000.05,0000.02,0000.07,-000.24,-000.16,0000.59,0000.49,0000.03,18.1,24.6,08.1,05.5,0650.0,31.0
2021-03-18T00:20:00Z,00040200,00000000,0000.07,0000.02,0000.05,0000.20,-000.13,-000.13,-000.79,-000.81,-000.52,18.2,24.6,08.0,05.4,0650.0,31.0
2021-03-18T00:21:00Z,00040200,00000000,0000.07,-000.09,0000.22,0000.15,0000.17,-000.06,-000.08,0000.47,0000.11,18.2,24.6,07.8,05.3,0650.0,31.0
2021-03-18T00:22:00Z,00040200,00000000,0000.09,-000.01,0000.25,0000.57,0000.06,-000.31,-000.07,-000.58,0000.35,18.2,24.6,07.7,05.2,0650.2,31.0
2021-03-18T00:23:00Z,00040200,00000000,0000.20,-000.09,0000.40,0000.40,-000.27,-000.02,0000.14,0000.35,-000.07,18.2,24.6,07.8,05.2,0650.0,31.0
2021-03-18T00:24:00Z,00040200,00000000,0000.84,0000.13,0000.04,-000.17,-000.20,-000.03,0000.47,-000.05,0000.15,18.2,24.6,07.7,05.2,0650.1,31.0
2021-03-18T00:25:00Z,00040200,00000000,0000.29,-000.01,0000.07,0000.20,0000.06,0000.22,-000.53,-000.28,-000.17,18.2,24.6,07.6,05.2,0650.3,31.0
2021-03-18T00:26:00Z,00040200,00000000,-000.01,-000.21,-000.11,-000.05,-000.01,-000.29,0000.50,0000.28,0000.14,18.2,24.6,07.5,05.1,0650.4,31.0
2021-03-18T00:27:00Z,00040200,00000000,0000.47,0000.12,0000.23,0000.19,-000.04,0000.15,-000.46,-000.23,-000.09,18.3,24.6,07.5,05.1,0650.2,31.0
2021-03-18T00:28:00Z,00040200,00000000,-000.20,0000.04,0000.33,0000.28,-000.27,0000.35,-000.06,-000.20,-000.10,18.3,24.6,07.2,04.9,0650.2,31.0
2021-03-18T00:29:00Z,00040200,00000000,-000.21,-000.25,0000.17,0000.25,-000.01,-000.07,-000.02,0000.07,-000.15,18.3,24.7,07.2,04.9,0650.3,31.0
2021-03-18T00:30:00Z,00040200,00000000,0000.53,0000.16,-000.12,0000.26,0000.05,0000.12,-000.12,-000.28,0000.04,18.3,24.7,07.1,04.8,0650.3,31.0
2021-03-18T00:31:00Z,00040200,00000000,-000.06,-000.14,0000.31,-000.16,-000.03,-000.30,0000.04,-000.11,-000.45,18.3,24.7,07.1,04.8,0650.5,31.0
2021-03-18T00:32:00Z,00040200,00000000,0000.22,-000.04,0000.02,0000.11,-000.21,-000.18,0000.02,0000.43,0000.52,18.3,24.7,07.1,04.8,0650.4,31.0
2021-03-18T00:33:00Z,00040200,00000000,-000.12,-000.04,0000.12,0000.09,0000.12,0000.05,-000.08,0000.10,0000.31,18.3,24.7,07.0,04.8,0650.5,31.0
2021-03-18T00:34:00Z,00040200,00000000,0000.19,-000.00,0000.26,0000.04,-000.06,0000.01,0000.28,-000.06,-000.60,18.3,24.7,07.1,04.8,0650.3,31.0
2021-03-18T00:35:00Z,00040200,00000000,0000.09,0000.07,-000.02,0000.65,-000.03,0000.10,-000.36,0000.15,0000.42,18.3,24.6,07.0,04.8,0650.3,31.0
2021-03-18T00:36:00Z,00040200,00000000,0000.06,0000.07,-000.16,0000.39,0000.15,-000.18,0000.26,0000.05,-000.06,18.3,24.7,07.1,04.8,0650.4,31.0
2021-03-18T00:37:00Z,00040200,00000000,-000.07,0000.24,0000.13,-000.28,-000.02,0000.15,-000.28,-000.45,-000.30,18.3,24.7,07.0,04.7,0650.5,31.0
2021-03-18T00:38:00Z,00040200,00000000,0000.12,-000.11,-000.07,0000.02,0000.13,0000.08,0000.29,0000.14,0000.35,18.3,24.7,07.0,04.8,0650.5,31.0
2021-03-18T00:39:00Z,00040200,00000000,0000.02,0000.06,0000.14,0000.63,-000.04,0000.00,0000.24,0000.21,-000.01,18.3,24.7,07.0,04.7,0650.2,31.0
2021-03-18T00:40:00Z,00040200,00000000,0000.11,-000.04,-000.10,-000.16,-000.07,0000.04,-000.36,0000.02,0000.06,18.3,24.7,07.0,04.7,0650.1,31.0
2021-03-18T00:41:00Z,00040200,00000000,-000.19,-000.07,0000.01,0000.12,0000.15,-000.07,-000.17,-000.29,0000.10,18.3,24.7,07.0,04.7,0650.3,31.0
2021-03-18T00:42:00Z,00040200,00000000,0000.45,0000.07,0000.00,0000.24,0000.10,0000.12,0000.44,0000.24,-000.11,18.3,24.7,06.9,04.6,0650.1,31.0
2021-03-18T00:43:00Z,00040200,00000000,-000.56,-000.08,0000.28,0000.05,0000.19,0000.17,-000.08,0000.20,0000.23,18.3,24.7,06.8,04.6,0650.1,31.0
2021-03-18T00:44:00Z,00040200,00000000,-000.09,-000.07,0000.11,0000.65,0000.06,-000.09,0000.02,-000.02,-000.36,18.2,24.6,06.9,04.6,0650.3,31.0
2021-03-18T00:45:00Z,00040200,00000000,0000.34,-000.02,-000.00,-000.07,0000.04,-000.28,-000.66,-000.85,-000.44,18.2,24.7,06.7,04.6,0650.0,31.0
2021-03-18T00:46:00Z,00040200,00000000,-000.00,-000.14,-000.32,0000.07,-000.15,-000.19,-000.56,-000.29,-000.40,18.2,24.6,06.5,04.4,0649.9,31.0
2021-03-18T00:47:00Z,00040200,00000000,0000.33,0000.21,-000.09,0000.34,-000.06,0000.08,-000.02,0000.04,0000.05,18.2,24.7,06.4,04.3,0649.9,31.0
2021-03-18T00:48:00Z,00040200,00000000,-000.51,-000.19,0000.03,0000.10,0000.16,0000.01,-000.22,-000.64,0000.15,18.2,24.6,06.2,04.2,0650.1,31.0
2021-03-18T00:49:00Z,00040200,00000000,-000.03,-000.05,-000.08,-000.31,0000.13,-000.08,-000.29,0000.21,-000.34,18.2,24.6,06.2,04.2,0650.2,31.0
2021-03-18T00:50:00Z,00040200,00000000,0000.12,-000.12,-000.17,0000.12,0000.16,0000.21,-000.25,-000.60,-000.37,18.2,24.6,06.1,04.1,0650.4,31.0
2021-03-18T00:51:00Z,00040200,00000000,0000.17,-000.04,0000.17,0000.12,0000.10,-000.12,-000.19,-000.04,0000.29,18.2,24.6,06.1,04.1,0650.3,31.0
2021-03-18T00:52:00Z,00040200,00000000,-000.14,-000.07,-000.11,0000.31,0000.17,0000.01,-000.13,-000.15,-000.45,18.2,24.6,06.1,04.1,0650.4,31.0
2021-03-18T00:53:00Z,00040200,00000000,-000.06,-000.04,0000.22,-000.28,0000.02,-000.20,0000.19,0000.29,0000.40,18.2,24.6,06.0,04.0,0650.2,31.0
2021-03-18T00:54:00Z,00040200,00000000,0000.34,-000.03,0000.17,0000.71,0000.02,0000.16,-000.18,-000.02,-000.24,18.1,24.6,05.9,04.0,0650.3,31.0
2021-03-18T00:55:00Z,00040200,00000000,0000.36,-000.10,0000.12,-000.02,0000.11,0000.09,-000.07,-000.32,0000.01,18.2,24.6,05.8,03.9,0650.2,31.0
2021-03-18T00:56:00Z,00040200,00000000,0000.17,0000.12,0000.17,0000.07,-000.05,-000.07,-000.19,-000.19,-000.25,18.1,24.6,05.8,03.9,0650.5,30.9
2021-03-18T00:57:00Z,00040200,40000000,,,,,,,0001.50,0001.81,0001.24,18.2,24.6,05.8,03.9,0650.2,31.0
2021-03-18T00:58:00Z,00040200,60000000,,,,,,,-001.04,-001.14,-000.82,17.9,24.7,06.2,04.1,0649.6,31.0
2021-03-18T00:59:00Z,00040200,20000000,,,,,,,-000.36,-000.81,-000.56,17.9,24.8,05.9,03.8,0649.6,31.0
